When you browse on this site, cookies collect data to enhance your experience and personalize the content and advertising you see.
Visit our Privacy Policy to learn more. By continuing to use the site, you agree to this use of cookies and data.
  • In Romania
  • List of Countries
  • For 7 days
  • Water Temperature
  • Weather Map
  • Weather Widgets
  • user-avatar
    Login

    Hourly Weather Sololá

    Today, 13 November, Wednesday

    Time Temperature Precipitation Wind Pressure Humidity
    00:00 +10°C° 0 mm 2 mps 593 mmHg 88%
    01:00 +10°C° 0 mm 2 mps 592 mmHg 85%
    02:00 +10°C° 0 mm 2 mps 592 mmHg 81%
    03:00 +10°C° 0 mm 2 mps 592 mmHg 77%
    04:00 +10°C° 0 mm 2 mps 592 mmHg 77%
    05:00 +10°C° 0 mm 2 mps 592 mmHg 77%
    06:00 +9°C° 0 mm 2 mps 592 mmHg 75%
    07:00 +13°C° 0 mm 2 mps 594 mmHg 68%
    08:00 +16°C° 0 mm 2 mps 595 mmHg 61%
    09:00 +19°C° 0 mm 1 mps 597 mmHg 55%
    10:00 +21°C° 0 mm 1 mps 597 mmHg 53%
    11:00 +22°C° 0 mm 1 mps 597 mmHg 50%
    12:00 +23°C° 0 mm 1 mps 597 mmHg 48%
    13:00 +22°C° 0.1 mm 1 mps 596 mmHg 55%
    14:00 +21°C° 0.1 mm 1 mps 595 mmHg 62%
    15:00 +19°C° 0.1 mm 2 mps 595 mmHg 70%
    16:00 +19°C° 0.2 mm 1 mps 594 mmHg 79%
    17:00 +16°C° 0.2 mm 1 mps 593 mmHg 88%
    18:00 +13°C° 0.2 mm 0 mps 593 mmHg 97%
    19:00 +14°C° 0 mm 1 mps 593 mmHg 97%
    20:00 +14°C° 0 mm 1 mps 594 mmHg 97%
    21:00 +13°C° 0 mm 1 mps 594 mmHg 97%
    22:00 +13°C° 0.1 mm 1 mps 594 mmHg 96%
    23:00 +13°C° 0.1 mm 1 mps 594 mmHg 94%

    Tomorrow, 14 November, Thursday

    Time Temperature Precipitation Wind Pressure Humidity
    00:00 +12°C° 0.1 mm 1 mps 593 mmHg 93%
    01:00 +12°C° 0 mm 1 mps 593 mmHg 92%
    02:00 +12°C° 0 mm 1 mps 593 mmHg 91%
    03:00 +11°C° 0 mm 1 mps 592 mmHg 90%
    04:00 +11°C° 0 mm 1 mps 592 mmHg 89%
    05:00 +11°C° 0 mm 1 mps 592 mmHg 87%
    06:00 +11°C° 0 mm 1 mps 593 mmHg 85%
    07:00 +14°C° 0 mm 1 mps 594 mmHg 77%
    08:00 +18°C° 0 mm 1 mps 596 mmHg 68%
    09:00 +21°C° 0 mm 1 mps 598 mmHg 60%
    10:00 +21°C° 0 mm 1 mps 598 mmHg 59%
    11:00 +21°C° 0 mm 2 mps 597 mmHg 57%
    12:00 +23°C° 0 mm 2 mps 597 mmHg 56%
    13:00 +21°C° 0.6 mm 2 mps 596 mmHg 66%
    14:00 +20°C° 0.6 mm 1 mps 595 mmHg 76%
    15:00 +19°C° 0.6 mm 1 mps 594 mmHg 86%
    16:00 +18°C° 0.4 mm 1 mps 594 mmHg 90%
    17:00 +16°C° 0.4 mm 1 mps 594 mmHg 93%
    18:00 +14°C° 0.4 mm 0 mps 594 mmHg 97%
    19:00 +14°C° 0.2 mm 1 mps 594 mmHg 97%
    20:00 +14°C° 0.2 mm 1 mps 594 mmHg 96%
    21:00 +13°C° 0.2 mm 1 mps 595 mmHg 96%
    22:00 +13°C° 0.1 mm 1 mps 594 mmHg 95%
    23:00 +13°C° 0.1 mm 1 mps 594 mmHg 95%

    Day after tomorrow, 15 November, Friday

    Time Temperature Precipitation Wind Pressure Humidity
    00:00 +12°C° 0.1 mm 1 mps 594 mmHg 94%
    01:00 +12°C° 0 mm 2 mps 594 mmHg 94%
    02:00 +12°C° 0 mm 2 mps 593 mmHg 94%
    03:00 +13°C° 0 mm 2 mps 593 mmHg 93%
    04:00 +13°C° 0 mm 2 mps 593 mmHg 92%
    05:00 +13°C° 0 mm 2 mps 594 mmHg 92%
    06:00 +13°C° 0 mm 2 mps 594 mmHg 91%
    07:00 +15°C° 0 mm 1 mps 595 mmHg 85%
    08:00 +16°C° 0 mm 1 mps 596 mmHg 78%
    09:00 +19°C° 0 mm 1 mps 597 mmHg 72%
    10:00 +21°C° 0 mm 1 mps 597 mmHg 66%
    11:00 +22°C° 0 mm 1 mps 597 mmHg 60%
    12:00 +23°C° 0 mm 2 mps 598 mmHg 54%
    13:00 +21°C° 0.3 mm 2 mps 597 mmHg 61%
    14:00 +20°C° 0.3 mm 2 mps 596 mmHg 69%
    15:00 +20°C° 0.3 mm 1 mps 595 mmHg 76%
    16:00 +18°C° 0.4 mm 1 mps 594 mmHg 82%
    17:00 +16°C° 0.4 mm 1 mps 594 mmHg 88%
    18:00 +14°C° 0.4 mm 1 mps 593 mmHg 95%
    19:00 +14°C° 0.1 mm 1 mps 594 mmHg 95%
    20:00 +13°C° 0.1 mm 2 mps 594 mmHg 95%
    21:00 +12°C° 0.1 mm 2 mps 594 mmHg 95%
    22:00 +12°C° 0 mm 2 mps 594 mmHg 94%
    23:00 +12°C° 0 mm 2 mps 594 mmHg 93%

    16 November, Saturday

    Time Temperature Precipitation Wind Pressure Humidity
    00:00 +12°C° 0 mm 2 mps 593 mmHg 92%
    01:00 +12°C° 0 mm 2 mps 593 mmHg 91%
    02:00 +13°C° 0 mm 2 mps 593 mmHg 90%
    03:00 +13°C° 0 mm 2 mps 593 mmHg 89%
    04:00 +13°C° 0 mm 2 mps 593 mmHg 89%
    05:00 +13°C° 0 mm 2 mps 593 mmHg 89%
    06:00 +13°C° 0 mm 2 mps 593 mmHg 89%
    07:00 +15°C° 0 mm 2 mps 594 mmHg 82%
    08:00 +16°C° 0 mm 2 mps 596 mmHg 75%
    09:00 +18°C° 0 mm 2 mps 597 mmHg 68%
    10:00 +19°C° 0 mm 2 mps 597 mmHg 66%
    11:00 +21°C° 0 mm 1 mps 597 mmHg 64%
    12:00 +21°C° 0 mm 1 mps 597 mmHg 61%
    13:00 +21°C° 0.3 mm 1 mps 596 mmHg 66%
    14:00 +20°C° 0.3 mm 1 mps 595 mmHg 70%
    15:00 +20°C° 0.3 mm 1 mps 594 mmHg 75%
    16:00 +18°C° 0.4 mm 1 mps 594 mmHg 82%
    17:00 +15°C° 0.4 mm 1 mps 593 mmHg 89%
    18:00 +14°C° 0.4 mm 1 mps 593 mmHg 97%
    19:00 +13°C° 0.2 mm 1 mps 593 mmHg 96%
    20:00 +13°C° 0.2 mm 2 mps 593 mmHg 96%
    21:00 +12°C° 0.2 mm 2 mps 593 mmHg 95%
    22:00 +12°C° 0 mm 2 mps 593 mmHg 94%
    23:00 +12°C° 0 mm 2 mps 593 mmHg 93%

    17 November, Sunday

    Time Temperature Precipitation Wind Pressure Humidity
    00:00 +12°C° 0 mm 2 mps 592 mmHg 92%
    01:00 +12°C° 0 mm 2 mps 592 mmHg 91%
    02:00 +12°C° 0 mm 2 mps 592 mmHg 89%
    03:00 +12°C° 0 mm 2 mps 592 mmHg 88%
    04:00 +12°C° 0 mm 2 mps 592 mmHg 87%
    05:00 +12°C° 0 mm 2 mps 592 mmHg 86%
    06:00 +12°C° 0 mm 2 mps 592 mmHg 86%
    07:00 +14°C° 0 mm 1 mps 593 mmHg 77%
    08:00 +18°C° 0 mm 1 mps 595 mmHg 69%
    09:00 +20°C° 0 mm 1 mps 596 mmHg 60%
    10:00 +21°C° 0 mm 1 mps 596 mmHg 59%
    11:00 +22°C° 0 mm 1 mps 596 mmHg 58%
    12:00 +23°C° 0 mm 2 mps 596 mmHg 57%
    13:00 +20°C° 0.5 mm 2 mps 595 mmHg 67%
    14:00 +20°C° 0.5 mm 1 mps 594 mmHg 78%
    15:00 +18°C° 0.5 mm 1 mps 592 mmHg 88%
    16:00 +18°C° 0.6 mm 1 mps 592 mmHg 91%
    17:00 +16°C° 0.6 mm 1 mps 592 mmHg 95%
    18:00 +14°C° 0.6 mm 0 mps 592 mmHg 99%
    19:00 +14°C° 0.5 mm 0 mps 593 mmHg 98%
    20:00 +14°C° 0.5 mm 0 mps 593 mmHg 98%
    21:00 +13°C° 0.5 mm 0 mps 593 mmHg 98%
    22:00 +13°C° 0.6 mm 0 mps 593 mmHg 98%
    23:00 +13°C° 0.6 mm 0 mps 593 mmHg 98%

    18 November, Monday

    Time Temperature Precipitation Wind Pressure Humidity
    00:00 +13°C° 0.6 mm 0 mps 593 mmHg 98%
    01:00 +13°C° 0.1 mm 0 mps 592 mmHg 98%
    02:00 +13°C° 0.1 mm 0 mps 592 mmHg 97%
    03:00 +12°C° 0.1 mm 0 mps 592 mmHg 97%
    04:00 +12°C° 0 mm 0 mps 592 mmHg 96%
    05:00 +13°C° 0 mm 1 mps 592 mmHg 96%
    06:00 +12°C° 0 mm 1 mps 592 mmHg 95%
    07:00 +15°C° 0 mm 1 mps 593 mmHg 87%
    08:00 +18°C° 0 mm 1 mps 594 mmHg 79%
    09:00 +20°C° 0 mm 1 mps 595 mmHg 71%
    10:00 +21°C° 0 mm 1 mps 595 mmHg 68%
    11:00 +21°C° 0 mm 2 mps 595 mmHg 64%
    12:00 +23°C° 0 mm 2 mps 595 mmHg 60%
    13:00 +20°C° 0.7 mm 2 mps 594 mmHg 69%
    14:00 +19°C° 0.7 mm 2 mps 593 mmHg 78%
    15:00 +19°C° 0.7 mm 1 mps 592 mmHg 88%
    16:00 +18°C° 0.6 mm 1 mps 592 mmHg 91%
    17:00 +16°C° 0.6 mm 1 mps 592 mmHg 94%
    18:00 +14°C° 0.6 mm 0 mps 592 mmHg 98%
    19:00 +14°C° 0.4 mm 0 mps 592 mmHg 98%
    20:00 +13°C° 0.4 mm 0 mps 593 mmHg 98%
    21:00 +13°C° 0.4 mm 0 mps 593 mmHg 98%
    22:00 +13°C° 0.2 mm 0 mps 593 mmHg 97%
    23:00 +13°C° 0.2 mm 0 mps 593 mmHg 97%
    Show more